Location: Aix-en-Ergny
(50.5839°N, 1.9996°E)
Time: 09:24:03
(UTC+00:00)

Cosmos 2344 - Pass Details

Date: 23 October 2019
Orbit: 1259 x 2983 km, 63.3° (Epoch: 12 November)

Event Time Altitude Azimuth Distance (km) Brightness Sun altitude
Exits shadow 03:55:58 10° 316° (NW) 3,690 5.7 -24.5°
Maximum altitude 04:05:16 86° 46° (NE) 1,900 4.4 -23.1°
Drops below altitude 10° 04:18:23 10° 137° (SE) 5,053 7.1 -21.1°
Sets 04:22:34 0° 138° (SE) 6,277 7.7 -20.4°
